Regional Weather Roundup
Issued by NWS

Home | Current Version | Previous Version | Graphics & Text | Print | Product List | Glossary On
Versions: 1 2 3 4 5 6 7 8 9 10 11 12 13 14 15 16 17 18 19 20 21 22 23 24 25 26 27 28 29 30 31 32 33 34 35 36 37 38 39 40 41 42 43 44 45 46 47 48 49 50
000
ASUS43 KIND 010609
RWRIN

WEATHER ROUNDUP FOR INDIANA
NATIONAL WEATHER SERVICE INDIANAPOLIS IN
200 AM EDT SAT OCT 01 2016

NOTE: "FAIR" INDICATES FEW OR NO CLOUDS BELOW 12,000 FEET WITH NO
SIGNIFICANT WEATHER AND/OR OBSTRUCTIONS TO VISIBILITY.

* - STATION DOES NOT REPORT WEATHER SUCH AS PRECIPITATION OR FOG.

+ - STATION NOT QUALITY CONTROLLED BY THE NATIONAL WEATHER SERVICE.
    USE DATA WITH CAUTION...ESPECIALLY DEWPOINT AND RELATIVE
    HUMIDITY OBSERVATIONS.

INZ001>003-010>013-019-020-010700-
NORTHWEST INDIANA

CITY           SKY/WX    TMP DP  RH WIND       PRES   REMARKS
GARY /AIRPORT/ CLEAR     59  58  97 E3        30.05S
KNOX *+        CLOUDY    57  50  77 E6        30.03S
LA PORTE +     PTCLDY   N/A N/A N/A E6        30.05S
                                      6HR PCP:  0.01;

MICHIGAN CITY+ CLEAR     55  55 100 CALM      30.05S
MONTICELLO +   CLOUDY    60  54  82 NE5       30.00F
6HR MIN TEMP:  60; 6HR MAX TEMP:  63;

RENSSELAER +   PTCLDY    59  57  94 NE5       30.02F
VALPARAISO     CLEAR     55  54  96 NE5       30.03F
6HR MIN TEMP:  54; 6HR MAX TEMP:  60; 6HR PCP:  0.03;


$$

LMZ046-743>745-010700-
SOUTHERN LAKE MICHIGAN

STATION/POSITION TIME  TEMP    WIND        PRES    WAVE
                       AIR SEA DIR/SP/G            HT
                 (UTC) (F)     (DEG/KT/KT) (MB)    (FT)
BURNS HARBOR     0540   60      50/  4/  5 1017.6S
MICHIGAN CITY    0540   58      60/  9/ 11   N/A
5NW MICH CITY    0600   61 64   80/ 12/ 14   N/A     4

$$

INZ004-005-014>016-021>024-010700-
NORTH CENTRAL INDIANA

CITY           SKY/WX    TMP DP  RH WIND       PRES   REMARKS
GOSHEN         CLOUDY    59  56  89 N5        30.03F
6HR MIN TEMP:  59; 6HR MAX TEMP:  61; 6HR PCP: TRACE;

LOGANSPORT +   CLOUDY    59  57  94 E3        30.02S
PERU/GRISSOM   CLOUDY    59  59 100 E5        29.99F
6HR MIN TEMP:  58; 6HR MAX TEMP:  62; 6HR PCP:  0.01;

ROCHESTER +    CLOUDY    59  59 100 E5        30.02F
SOUTH BEND     CLOUDY    59  57  93 NE3       30.05F
6HR MIN TEMP:  58; 6HR MAX TEMP:  60; 6HR PCP: TRACE;

WARSAW +       CLOUDY    59  54  82 NE3       30.03S

$$

INZ006>009-017-018-025>027-010700-
NORTHEAST INDIANA

CITY           SKY/WX    TMP DP  RH WIND       PRES   REMARKS
ANGOLA *+        N/A     61  48  63 E7        30.04S
AUBURN +       CLOUDY    59  57  94 NE6       30.03F FOG
FORT WAYNE     LGT RAIN  60  58  92 E6        30.02S FOG
6HR MIN TEMP:  58; 6HR MAX TEMP:  60; 6HR PCP: TRACE;

HUNTINGTON +   CLOUDY    58  57  96 CALM      30.02S FOG
6HR MIN TEMP:  57; 6HR MAX TEMP:  60;

KENDALLVILLE + DRIZZLE   59  59  99 NE5       30.03F

$$

INZ028-029-035-036-043>045-051>053-010700-
WEST CENTRAL INDIANA

CITY           SKY/WX    TMP DP  RH WIND       PRES   REMARKS
CRAWFORDSVL +  CLOUDY    56  56 100 SE3       30.00S FOG
6HR MIN TEMP:  56; 6HR MAX TEMP:  58; 6HR PCP:  0.01;

GREENCASTLE +  FOG       52  52 100 CALM      30.01S VSB 1/2
LAFAYETTE      CLOUDY    59  59 100 NE6       29.99S
6HR MIN TEMP:  59; 6HR MAX TEMP:  62; 6HR PCP: TRACE;

TERRE HAUTE    CLOUDY    58  56  93 CALM      29.99F
6HR MIN TEMP:  57; 6HR MAX TEMP:  61;


$$

INZ030>032-037>040-046>048-054>057-064-065-010700-
CENTRAL INDIANA

CITY           SKY/WX    TMP DP  RH WIND       PRES   REMARKS
FISHERS *+     CLOUDY    55  55 100 CALM      30.02
FRANKFORT +    MOCLDY    59  58  96 SE5       30.02F FOG
6HR MIN TEMP:  59; 6HR MAX TEMP:  63;

GREENWOOD *+   CLOUDY    55  55 100 CALM      30.02S
INDIANAPOLIS   CLOUDY    56  55  97 S3        30.01S
6HR MIN TEMP:  56; 6HR MAX TEMP:  62; 6HR PCP: TRACE;

-EAGLE CREEK   CLOUDY    58  56  93 SE3       30.00F
6HR MIN TEMP:  58; 6HR MAX TEMP:  62; 6HR PCP: TRACE;

KOKOMO *+      CLOUDY    59  57  94 E3        30.02S
6HR MIN TEMP:  59; 6HR MAX TEMP:  61; 6HR PCP: TRACE;

MARION +       CLOUDY    58  57  97 CALM      30.01F FOG
MT COMFORT *+  CLOUDY    55  54  94 CALM      30.02S
SHELBYVILLE    MOCLDY    54  51  90 CALM      30.02R
6HR MIN TEMP:  54; 6HR MAX TEMP:  63;

ZIONSVILLE +   CLOUDY    56  56  98 CALM      30.02R FOG
6HR MIN TEMP:  54; 6HR MAX TEMP:  60;


$$

INZ033-034-041-042-049-050-058-059-010700-
EAST CENTRAL INDIANA

CITY           SKY/WX    TMP DP  RH WIND       PRES   REMARKS
MUNCIE         CLOUDY    59  56  89 SW3       30.01S
6HR MIN TEMP:  59; 6HR MAX TEMP:  61; 6HR PCP:  0.01;


$$

INZ060-061-067>069-081>083-085>088-010700-
SOUTHWEST INDIANA

CITY           SKY/WX    TMP DP  RH WIND       PRES   REMARKS
EVANSVILLE     CLOUDY    58  56  93 CALM      30.00F FOG
6HR MIN TEMP:  56; 6HR MAX TEMP:  59; 6HR PCP:  0.09;

HUNTINGBURG *+   N/A     52  48  87 SE3       30.01S VSB 1
6HR MIN TEMP:  52; 6HR MAX TEMP:  59;

WASHINGTON +   CLOUDY    54  54 100 CALM      30.00S
6HR MIN TEMP:  52; 6HR MAX TEMP:  58; 6HR PCP:  0.11;


$$

INZ062-063-066-070>080-084-089>092-010700-
SOUTH CENTRAL AND SOUTHEAST INDIANA

CITY           SKY/WX    TMP DP  RH WIND       PRES   REMARKS
BLOOMINGTON    PTCLDY    50  48  93 CALM      30.01S
6HR MIN TEMP:  50; 6HR MAX TEMP:  60;

MADISON *+     CLOUDY    54  52  94 CALM      30.04S
NORTH VERNON + CLOUDY   N/A N/A N/A CALM      30.03S
SEYMOUR +      CLOUDY    54  52  94 CALM      30.02S

$$





USA.gov is the U.S. government's official web portal to all federal, state and local government web resources and services.